Regional Weather Roundup
Issued by NWS

Home | Current Version | Previous Version | Text Only | Print | Product List | Glossary Off
Versions: 1 2 3 4 5 6 7 8 9 10 11 12 13 14 15 16 17 18 19 20 21 22 23 24 25 26 27 28 29 30 31 32 33 34 35 36 37 38 39 40 41 42 43 44 45 46 47 48 49 50

000
ASUS43 KLMK 250102
RWRKY
KENTUCKY REGIONAL WEATHER ROUNDUP
NATIONAL WEATHER SERVICE LOUISVILLE KY
900 PM EDT SAT SEP 24 2016

NOTE "FAIR" INDICATES FEW OR NO CLOUDS BELOW 12,000 FEET
WITH NO SIGNIFICANT WEATHER AND/OR OBSTRUCTIONS TO VISIBILITY.

KYZ001>023-026-027-061>063-070>075-250200-
WESTERN AND SOUTH CENTRAL KENTUCKY

CITY           SKY/WX    TMP DP  RH WIND       PRES   REMARKS
PADUCAH        CLEAR     75  69  81 SE3       30.02R
HENDERSON      CLEAR     73  64  73 CALM      30.03R
OWENSBORO      CLEAR    N/A N/A N/A CALM      30.05R
HOPKINSVILLE   CLEAR     80  66  62 E5        30.04S
BOWLING GREEN  CLEAR     76  66  71 CALM      30.06S
GLASGOW        NOT AVBL
$$

KYZ024-025-028>034-038-045-046-053-250200-
NORTH CENTRAL KENTUCKY

CITY           SKY/WX    TMP DP  RH WIND       PRES   REMARKS
LOUISVILLE/SDF PTCLDY    83  64  52 NE7       30.06S
LOUISVILLE/LOU CLEAR     83  66  56 NE6       30.07S
FORT KNOX      CLEAR     72  66  82 N1        30.06S
$$

KYZ035>037-039>044-047>052-055>060-089>105-250200-
NORTHEAST KENTUCKY

CITY           SKY/WX    TMP DP  RH WIND       PRES   REMARKS
LEXINGTON      PTCLDY    79  65  62 NE8       30.10R
COVINGTON      PTCLDY    77  67  71 NE9       30.11S
FRANKFORT      CLEAR     80  66  62 N6        30.08S
$$

KYZ054-064>069-076>088-106>120-250200-
SOUTHEAST KENTUCKY

CITY           SKY/WX    TMP DP  RH WIND       PRES   REMARKS
JACKSON        CLEAR     77  63  61 CALM      30.11S
LONDON         CLEAR     74  65  73 CALM      30.10S
SOMERSET       CLEAR     72  64  78 CALM      30.10R
MIDDLESBORO    CLEAR     72  65  80 W5        30.11R
MONTICELLO     CLEAR     68  63  84 CALM      30.11R
$$





USA.gov is the U.S. government's official web portal to all federal, state and local government web resources and services.